Ashford, WA

2:01 AM PST on December 28, 2014 (GMT -0800)
Paradise Estates | Change Station
CLOSE
Current Station
Personal Weather Station
Location: Ashford, WA
Elevation: 1722 ft
Nearby Weather Stations
Active Advisory: Winter Storm Warning

Elev 1722 ft 46.73 °N, 122.01 °W | Updated 2 minutes ago

Snow
Snow
36.9 °F
Feels Like 37 °F
N
0.0
Wind Variable Wind from SW
Gusts 0.0 mph

Today
High -- | Low -- °F
--% Chance of Precip.
Yesterday
High -- | Low -- °F
Precip. -- in
7:52 AM 4:26 PM
Waxing Crescent, 46% visible
Pressure 30.13 in
Visibility 10.0 miles
Clouds Overcast 1900 ft
Windchill 37 °F
Dew Point 37 °F
Humidity 100%
Rainfall 0.00 in
Snow Depth Not available.
UV 0 out of 12
Pollen .50 out of 12
Air Quality Not available.
Flu Activity Not available.
METAR KTCM 280958Z AUTO 18005KT 10SM OVC019 05/05 A3011 RMK AO2 SLP202 T00520050 $

More Conditions Fewer Conditions

Pressure 30.13 in
Visibility 10.0 miles
Clouds Overcast 1900 ft
Windchill 37 °F
Dew Point 37 °F
Humidity 100%
Rainfall 0.00 in
Snow Depth Not available.
UV 0 out of 12
Pollen .50 out of 12
Air Quality Not available.
Flu Activity Not available.
METAR KTCM 280958Z AUTO 18005KT 10SM OVC019 05/05 A3011 RMK AO2 SLP202 T00520050 $

More Conditions Fewer Conditions

10-Day Weather Forecast

Almanac

Astronomy

Dec. 28, 2014 Rise Set
Actual Time
Civil Twilight
Nautical Twilight
Astronomical Twilight
Moon
Length of Visible Light
Length of Day
Tomorrow will be .
, % of the Moon is Illuminated

Today's Extremes

State Highs State Lows

Community

WunderPhotos

Upload Photos

1,781,207 photos uploaded!

WunderBlogs® & News

Nearby

Air Quality

  Air Quality AQ Index Pollutant
Not available.

Snow Depth

Station Depth Elevation

Earthquake Activity

City Distance Mag. Time & Date
Minimum magnitude displayed is 2.5.

Coastal Water Temperatures

Place Temperature

Nearby Weather Stations